• In Austria
  • List of Countries
  • For 7 days
  • Water Temperature
  • Satellite Maps
  • Weather Map
  • News
  • Weather Widgets
  • user-avatar
    Login

    Hourly Weather Pazardzhik

    Today, 12 December, Tuesday

    Time Temperature Precipitation Wind Pressure Humidity
    00:00 +6°C° 0 mm 2 mps 745 mmHg 58%
    01:00 +6°C° 0 mm 2 mps 745 mmHg 58%
    02:00 +6°C° 0 mm 2 mps 745 mmHg 62%
    03:00 +6°C° 0 mm 2 mps 745 mmHg 63%
    04:00 +6°C° 0 mm 2 mps 745 mmHg 63%
    05:00 +7°C° 0 mm 2 mps 745 mmHg 64%
    06:00 +7°C° 0 mm 2 mps 745 mmHg 65%
    07:00 +7°C° 0 mm 2 mps 745 mmHg 66%
    08:00 +8°C° 0 mm 2 mps 745 mmHg 64%
    09:00 +10°C° 0 mm 2 mps 745 mmHg 61%
    10:00 +13°C° 0 mm 1 mps 745 mmHg 59%
    11:00 +15°C° 0 mm 1 mps 745 mmHg 56%
    12:00 +16°C° 0 mm 1 mps 745 mmHg 55%
    13:00 +16°C° 0 mm 1 mps 745 mmHg 55%
    14:00 +18°C° 0 mm 1 mps 744 mmHg 55%
    15:00 +15°C° 0 mm 1 mps 744 mmHg 62%
    16:00 +14°C° 0 mm 1 mps 744 mmHg 68%
    17:00 +12°C° 0 mm 1 mps 744 mmHg 74%
    18:00 +12°C° 0 mm 2 mps 745 mmHg 75%
    19:00 +10°C° 0 mm 2 mps 745 mmHg 75%
    20:00 +10°C° 0 mm 2 mps 745 mmHg 76%
    21:00 +10°C° 0 mm 2 mps 745 mmHg 76%
    22:00 +10°C° 0 mm 2 mps 745 mmHg 76%
    23:00 +9°C° 0 mm 2 mps 745 mmHg 76%

    Tomorrow, 13 December, Wednesday

    Time Temperature Precipitation Wind Pressure Humidity
    00:00 +9°C° 0 mm 2 mps 745 mmHg 76%
    01:00 +9°C° 0 mm 2 mps 745 mmHg 76%
    02:00 +9°C° 0 mm 2 mps 745 mmHg 76%
    03:00 +9°C° 0 mm 2 mps 745 mmHg 76%
    04:00 +9°C° 0 mm 2 mps 745 mmHg 77%
    05:00 +9°C° 0 mm 2 mps 745 mmHg 77%
    06:00 +9°C° 0 mm 2 mps 745 mmHg 77%
    07:00 +9°C° 0 mm 2 mps 745 mmHg 76%
    08:00 +9°C° 0 mm 2 mps 745 mmHg 76%
    09:00 +12°C° 0 mm 1 mps 745 mmHg 70%
    10:00 +14°C° 0 mm 1 mps 745 mmHg 64%
    11:00 +16°C° 0 mm 1 mps 745 mmHg 58%
    12:00 +16°C° 0 mm 1 mps 745 mmHg 57%
    13:00 +18°C° 0 mm 1 mps 744 mmHg 55%
    14:00 +19°C° 0 mm 1 mps 744 mmHg 54%
    15:00 +16°C° 0 mm 1 mps 744 mmHg 60%
    16:00 +14°C° 0 mm 1 mps 743 mmHg 66%
    17:00 +13°C° 0 mm 1 mps 743 mmHg 72%
    18:00 +12°C° 0 mm 1 mps 743 mmHg 71%
    19:00 +12°C° 0 mm 1 mps 743 mmHg 70%
    20:00 +12°C° 0 mm 1 mps 743 mmHg 69%
    21:00 +12°C° 0 mm 1 mps 743 mmHg 68%
    22:00 +12°C° 0 mm 1 mps 742 mmHg 68%
    23:00 +12°C° 0 mm 1 mps 742 mmHg 67%

    Day after tomorrow, 14 December, Thursday

    Time Temperature Precipitation Wind Pressure Humidity
    00:00 +12°C° 0 mm 1 mps 742 mmHg 67%
    01:00 +12°C° 0 mm 1 mps 741 mmHg 68%
    02:00 +12°C° 0 mm 1 mps 741 mmHg 69%
    03:00 +11°C° 0 mm 1 mps 741 mmHg 70%
    04:00 +10°C° 0 mm 2 mps 741 mmHg 71%
    05:00 +10°C° 0 mm 2 mps 740 mmHg 72%
    06:00 +9°C° 0 mm 2 mps 740 mmHg 74%
    07:00 +9°C° 0 mm 2 mps 741 mmHg 76%
    08:00 +10°C° 0 mm 1 mps 741 mmHg 79%
    09:00 +11°C° 0 mm 1 mps 741 mmHg 73%
    10:00 +13°C° 0 mm 1 mps 741 mmHg 68%
    11:00 +15°C° 0 mm 1 mps 741 mmHg 62%
    12:00 +15°C° 0 mm 1 mps 741 mmHg 60%
    13:00 +15°C° 0 mm 2 mps 740 mmHg 58%
    14:00 +16°C° 0 mm 2 mps 740 mmHg 56%
    15:00 +14°C° 0 mm 1 mps 740 mmHg 61%
    16:00 +13°C° 0 mm 1 mps 740 mmHg 67%
    17:00 +12°C° 0 mm 1 mps 740 mmHg 73%
    18:00 +11°C° 0 mm 1 mps 741 mmHg 74%
    19:00 +11°C° 0 mm 1 mps 741 mmHg 76%
    20:00 +10°C° 0 mm 1 mps 741 mmHg 78%
    21:00 +10°C° 0 mm 1 mps 742 mmHg 77%
    22:00 +9°C° 0 mm 1 mps 742 mmHg 77%
    23:00 +9°C° 0 mm 1 mps 742 mmHg 76%

    15 December, Friday

    Time Temperature Precipitation Wind Pressure Humidity
    00:00 +9°C° 0 mm 1 mps 742 mmHg 76%
    01:00 +9°C° 0 mm 1 mps 742 mmHg 75%
    02:00 +9°C° 0 mm 1 mps 742 mmHg 74%
    03:00 +9°C° 0 mm 1 mps 742 mmHg 73%
    04:00 +9°C° 0 mm 1 mps 741 mmHg 73%
    05:00 +8°C° 0 mm 1 mps 741 mmHg 72%
    06:00 +8°C° 0 mm 1 mps 741 mmHg 72%
    07:00 +8°C° 0 mm 1 mps 741 mmHg 71%
    08:00 +8°C° 0 mm 1 mps 741 mmHg 71%
    09:00 +10°C° 0 mm 1 mps 741 mmHg 66%
    10:00 +12°C° 0 mm 1 mps 741 mmHg 61%
    11:00 +14°C° 0 mm 2 mps 741 mmHg 56%
    12:00 +15°C° 0 mm 2 mps 740 mmHg 54%
    13:00 +15°C° 0 mm 2 mps 740 mmHg 53%
    14:00 +16°C° 0 mm 2 mps 739 mmHg 52%
    15:00 +14°C° 0 mm 2 mps 739 mmHg 58%
    16:00 +13°C° 0 mm 2 mps 739 mmHg 64%
    17:00 +10°C° 0 mm 2 mps 738 mmHg 70%
    18:00 +10°C° 0 mm 2 mps 738 mmHg 70%
    19:00 +10°C° 0 mm 2 mps 739 mmHg 70%
    20:00 +9°C° 0 mm 2 mps 739 mmHg 70%
    21:00 +9°C° 0 mm 2 mps 739 mmHg 70%
    22:00 +9°C° 0 mm 2 mps 738 mmHg 70%
    23:00 +9°C° 0 mm 2 mps 738 mmHg 70%

    16 December, Saturday

    Time Temperature Precipitation Wind Pressure Humidity
    00:00 +9°C° 0 mm 2 mps 738 mmHg 71%
    01:00 +9°C° 0 mm 2 mps 738 mmHg 71%
    02:00 +9°C° 0 mm 2 mps 738 mmHg 72%
    03:00 +9°C° 0 mm 2 mps 738 mmHg 73%
    04:00 +9°C° 0 mm 2 mps 737 mmHg 73%
    05:00 +9°C° 0 mm 2 mps 737 mmHg 74%
    06:00 +9°C° 0 mm 2 mps 738 mmHg 75%
    07:00 +9°C° 0 mm 2 mps 738 mmHg 75%
    08:00 +9°C° 0 mm 2 mps 738 mmHg 76%
    09:00 +10°C° 0 mm 2 mps 738 mmHg 73%
    10:00 +13°C° 0 mm 2 mps 738 mmHg 69%
    11:00 +14°C° 0 mm 2 mps 739 mmHg 66%
    12:00 +15°C° 0 mm 2 mps 739 mmHg 63%
    13:00 +15°C° 0 mm 2 mps 738 mmHg 61%
    14:00 +16°C° 0 mm 2 mps 738 mmHg 58%
    15:00 +15°C° 0 mm 2 mps 738 mmHg 65%
    16:00 +14°C° 0 mm 2 mps 739 mmHg 71%
    17:00 +12°C° 0 mm 2 mps 739 mmHg 78%
    18:00 +12°C° 0.1 mm 2 mps 739 mmHg 79%
    19:00 +10°C° 0.1 mm 2 mps 739 mmHg 80%
    20:00 +11°C° 0.1 mm 1 mps 739 mmHg 82%
    21:00 +11°C° 0.4 mm 1 mps 739 mmHg 83%
    22:00 +11°C° 0.4 mm 1 mps 739 mmHg 84%
    23:00 +11°C° 0.4 mm 1 mps 739 mmHg 86%

    17 December, Sunday

    Time Temperature Precipitation Wind Pressure Humidity
    00:00 +10°C° 0.6 mm 1 mps 739 mmHg 87%
    01:00 +10°C° 0.6 mm 1 mps 739 mmHg 88%
    02:00 +10°C° 0.6 mm 1 mps 738 mmHg 90%
    03:00 +10°C° 0.5 mm 1 mps 738 mmHg 90%
    04:00 +10°C° 0.5 mm 1 mps 738 mmHg 91%
    05:00 +9°C° 0.5 mm 1 mps 737 mmHg 91%
    06:00 +8°C° 1.1 mm 2 mps 738 mmHg 91%
    07:00 +8°C° 1.1 mm 2 mps 738 mmHg 90%
    08:00 +8°C° 1.1 mm 2 mps 739 mmHg 90%
    09:00 +8°C° 0.8 mm 2 mps 739 mmHg 88%
    10:00 +8°C° 0.8 mm 2 mps 739 mmHg 87%
    11:00 +8°C° 0.8 mm 2 mps 740 mmHg 86%
    12:00 +8°C° 0.4 mm 2 mps 740 mmHg 84%
    13:00 +8°C° 0.4 mm 2 mps 740 mmHg 83%
    14:00 +8°C° 0.4 mm 2 mps 740 mmHg 81%
    15:00 +8°C° 0.5 mm 2 mps 741 mmHg 83%
    16:00 +7°C° 0.5 mm 2 mps 741 mmHg 84%
    17:00 +7°C° 0.5 mm 2 mps 742 mmHg 86%
    18:00 +6°C° 0.8 mm 2 mps 742 mmHg 87%
    19:00 +7°C° 0.8 mm 1 mps 743 mmHg 88%
    20:00 +7°C° 0.8 mm 1 mps 743 mmHg 90%
    21:00 +7°C° 0.7 mm 1 mps 743 mmHg 90%
    22:00 +7°C° 0.7 mm 1 mps 744 mmHg 90%
    23:00 +6°C° 0.7 mm 1 mps 744 mmHg 91%
    Show more